Location: Newark
(34.6283°N, 36.0776°E)
Time: 01:14:10
(UTC+00:00)

A-11 Canister half - Pass Details

Date: 23 September 2019
Orbit: 1527 x 1682 km, 47.3° (Epoch: 18 October)

Event Time Altitude Azimuth Distance (km) Brightness Sun altitude
Rises 07:32:41 0° 304° (NW) 4,802 11.2 46.1°
Reaches altitude 10° 07:35:46 10° 303° (WNW) 3,835 10.8 46.5°
Maximum altitude 07:45:30 72° 222° (SW) 1,721 10.2 47.9°
Drops below altitude 10° 07:55:31 10° 140° (SE) 3,924 12.1 49.1°
Sets 07:58:42 0° 138° (SE) 4,917 12.3 49.5°
